EZY101 EGPH-EGKK

Flight info

Callsign EZY101
Flight time 1h 9m
Altitude 33000
Route GOSAM P600 FENIK L612 NAVSO DCT KEPAD L151 DISIT
Aircraft A20N/M-SDE2E3FGHIRWXY/LB1

Departure

Time 2026-04-26 21:04
Airport Edinburgh Airport (EGPH)

Arrival

Time 2026-04-26 22:13
Airport London Gatwick Airport (EGKK)
Time Latitude Longitude Altitude Speed Heading
2026-04-26 20:51 55.94612 -3.36626 119 ft 0 kts 89°
2026-04-26 20:58 55.94612 -3.36631 119 ft 2 kts 79°
2026-04-26 20:58 55.94610 -3.36659 115 ft 2 kts 88°
2026-04-26 20:58 55.94610 -3.36689 117 ft 2 kts 81°
2026-04-26 20:58 55.94608 -3.36717 116 ft 2 kts 88°
2026-04-26 20:59 55.94607 -3.36746 116 ft 2 kts 59°
2026-04-26 20:59 55.94605 -3.36752 116 ft 0 kts 42°
2026-04-26 21:00 55.94619 -3.36736 118 ft 6 kts 26°
2026-04-26 21:00 55.94671 -3.36735 119 ft 11 kts 357°
2026-04-26 21:00 55.94773 -3.36764 117 ft 16 kts 339°
2026-04-26 21:01 55.94882 -3.36789 119 ft 16 kts 343°
2026-04-26 21:01 55.94931 -3.36826 117 ft 6 kts
2026-04-26 21:01 55.94966 -3.36782 118 ft 7 kts 62°
2026-04-26 21:01 55.95026 -3.36601 118 ft 23 kts 59°
2026-04-26 21:02 55.95117 -3.36332 115 ft 26 kts 59°
2026-04-26 21:02 55.95212 -3.36050 118 ft 27 kts 59°
2026-04-26 21:02 55.95311 -3.35759 117 ft 28 kts 58°
2026-04-26 21:02 55.95408 -3.35469 116 ft 18 kts 59°
2026-04-26 21:03 55.95478 -3.35419 119 ft 7 kts 333°
2026-04-26 21:03 55.95552 -3.35501 114 ft 20 kts 312°
2026-04-26 21:03 55.95453 -3.35900 113 ft 75 kts 239°
2026-04-26 21:03 55.95009 -3.37215 119 ft 168 kts 239°
2026-04-26 21:04 55.94353 -3.39139 759 ft 190 kts 239°
2026-04-26 21:04 55.93627 -3.41206 1656 ft 201 kts 239°
2026-04-26 21:04 55.92868 -3.43406 2555 ft 224 kts 240°
2026-04-26 21:04 55.92021 -3.45883 3554 ft 242 kts 240°
2026-04-26 21:05 55.91117 -3.48511 4562 ft 259 kts 240°
2026-04-26 21:05 55.90347 -3.51603 5114 ft 291 kts 258°
2026-04-26 21:05 55.89949 -3.55343 5624 ft 323 kts 260°
2026-04-26 21:05 55.89554 -3.59464 6170 ft 349 kts 261°
2026-04-26 21:06 55.89149 -3.63783 7130 ft 357 kts 261°
2026-04-26 21:06 55.88729 -3.68172 8234 ft 362 kts 260°
2026-04-26 21:06 55.88295 -3.72621 9352 ft 367 kts 260°
2026-04-26 21:06 55.87848 -3.77131 10454 ft 372 kts 260°
2026-04-26 21:07 55.87394 -3.81697 11443 ft 378 kts 260°
2026-04-26 21:07 55.86928 -3.86343 12415 ft 384 kts 260°
2026-04-26 21:07 55.86454 -3.91052 13361 ft 389 kts 260°
2026-04-26 21:07 55.85972 -3.95822 14269 ft 395 kts 260°
2026-04-26 21:08 55.85480 -4.00663 15109 ft 399 kts 260°
2026-04-26 21:08 55.84877 -4.05491 16034 ft 402 kts 253°
2026-04-26 21:08 55.83672 -4.09986 16918 ft 408 kts 238°
2026-04-26 21:08 55.81914 -4.13996 17765 ft 414 kts 232°
2026-04-26 21:09 55.80012 -4.17880 18581 ft 418 kts 231°
2026-04-26 21:09 55.78078 -4.21776 19284 ft 422 kts 231°
2026-04-26 21:09 55.76130 -4.25697 20027 ft 425 kts 231°
2026-04-26 21:09 55.74169 -4.29641 20752 ft 427 kts 231°
2026-04-26 21:10 55.72219 -4.33557 21449 ft 430 kts 231°
2026-04-26 21:10 55.70232 -4.37546 22119 ft 433 kts 231°
2026-04-26 21:10 55.68229 -4.41570 22745 ft 438 kts 231°
2026-04-26 21:10 55.66207 -4.45632 23435 ft 441 kts 231°
2026-04-26 21:11 55.64097 -4.49606 24040 ft 446 kts 226°
2026-04-26 21:11 55.61646 -4.53059 24562 ft 455 kts 217°
2026-04-26 21:11 55.58812 -4.55648 25117 ft 463 kts 205°
2026-04-26 21:11 55.55666 -4.57069 25760 ft 471 kts 192°
2026-04-26 21:12 55.52373 -4.57125 26502 ft 478 kts 178°
2026-04-26 21:12 55.49120 -4.55753 27251 ft 485 kts 164°
2026-04-26 21:12 55.46051 -4.53250 27978 ft 487 kts 157°
2026-04-26 21:12 55.44066 -4.51413 28462 ft 486 kts 156°
2026-04-26 21:13 55.41102 -4.48622 29280 ft 481 kts 156°
2026-04-26 21:13 55.38155 -4.45865 30018 ft 478 kts 157°
2026-04-26 21:13 55.35221 -4.43147 30649 ft 476 kts 157°
2026-04-26 21:13 55.32291 -4.40452 31233 ft 473 kts 158°
2026-04-26 21:14 55.29373 -4.37782 31823 ft 471 kts 158°
2026-04-26 21:14 55.26461 -4.35128 32267 ft 472 kts 158°
2026-04-26 21:14 55.23540 -4.32473 32697 ft 472 kts 158°
2026-04-26 21:14 55.20623 -4.29828 33134 ft 473 kts 158°
2026-04-26 21:15 55.17733 -4.27210 33368 ft 471 kts 158°
2026-04-26 21:15 55.11922 -4.21962 33290 ft 471 kts 158°
2026-04-26 21:16 55.06091 -4.16714 33288 ft 471 kts 158°
2026-04-26 21:16 55.00251 -4.11474 33283 ft 471 kts 158°
2026-04-26 21:17 54.94411 -4.06252 33274 ft 471 kts 158°
2026-04-26 21:17 54.88588 -4.01061 33279 ft 469 kts 158°
2026-04-26 21:18 54.82783 -3.95904 33279 ft 469 kts 158°
2026-04-26 21:18 54.76973 -3.90761 33280 ft 469 kts 158°
2026-04-26 21:19 54.71160 -3.85630 33283 ft 469 kts 158°
2026-04-26 21:19 54.65355 -3.80524 33281 ft 467 kts 158°
2026-04-26 21:20 54.59566 -3.75445 33282 ft 466 kts 158°
2026-04-26 21:20 54.53830 -3.70432 33284 ft 465 kts 158°
2026-04-26 21:21 54.48062 -3.65407 33285 ft 464 kts 158°
2026-04-26 21:21 54.42296 -3.60400 33286 ft 464 kts 158°
2026-04-26 21:22 54.36544 -3.55419 33291 ft 462 kts 158°
2026-04-26 21:22 54.30798 -3.50460 33293 ft 462 kts 158°
2026-04-26 21:23 54.22182 -3.43053 33298 ft 462 kts 158°
2026-04-26 21:23 54.16434 -3.38131 33288 ft 461 kts 158°
2026-04-26 21:24 54.10697 -3.33233 33293 ft 461 kts 158°
2026-04-26 21:24 54.04953 -3.28346 33290 ft 461 kts 158°
2026-04-26 21:25 53.99216 -3.23478 33288 ft 461 kts 158°
2026-04-26 21:25 53.93510 -3.18653 33283 ft 461 kts 158°
2026-04-26 21:26 53.87771 -3.13813 33282 ft 460 kts 158°
2026-04-26 21:26 53.82041 -3.08996 33285 ft 459 kts 159°
2026-04-26 21:27 53.76320 -3.04202 33287 ft 459 kts 159°
2026-04-26 21:27 53.70596 -2.99421 33283 ft 459 kts 159°
2026-04-26 21:28 53.64878 -2.94657 33284 ft 457 kts 159°
2026-04-26 21:28 53.59176 -2.89923 33289 ft 457 kts 159°
2026-04-26 21:29 53.53477 -2.85205 33290 ft 457 kts 159°
2026-04-26 21:29 53.47775 -2.80499 33281 ft 457 kts 159°
2026-04-26 21:30 53.42068 -2.75803 33287 ft 457 kts 159°
2026-04-26 21:30 53.36361 -2.71121 33291 ft 457 kts 159°
2026-04-26 21:31 53.30691 -2.66483 33290 ft 457 kts 159°
2026-04-26 21:31 53.24986 -2.61831 33282 ft 456 kts 159°
2026-04-26 21:32 53.19274 -2.57186 33286 ft 456 kts 159°
2026-04-26 21:32 53.13576 -2.52565 33287 ft 456 kts 160°
2026-04-26 21:33 53.07866 -2.47951 33288 ft 456 kts 160°
2026-04-26 21:33 53.02156 -2.43350 33285 ft 456 kts 160°
2026-04-26 21:34 52.96440 -2.38757 33280 ft 456 kts 160°
2026-04-26 21:34 52.90740 -2.34191 33289 ft 454 kts 160°
2026-04-26 21:35 52.85049 -2.29644 33289 ft 454 kts 160°
2026-04-26 21:35 52.79354 -2.25109 33291 ft 454 kts 160°
2026-04-26 21:36 52.74617 -2.21347 33287 ft 454 kts 160°
2026-04-26 21:36 52.67992 -2.16100 33279 ft 455 kts 160°
2026-04-26 21:37 52.62282 -2.11592 33286 ft 455 kts 160°
2026-04-26 21:37 52.56573 -2.07097 33286 ft 455 kts 160°
2026-04-26 21:38 52.50862 -2.02614 33286 ft 455 kts 160°
2026-04-26 21:38 52.45155 -1.98147 33271 ft 454 kts 160°
2026-04-26 21:39 52.39436 -1.93685 33278 ft 456 kts 160°
2026-04-26 21:39 52.33707 -1.89224 33237 ft 451 kts 160°
2026-04-26 21:40 52.30907 -1.87043 32944 ft 440 kts 160°
2026-04-26 21:40 52.28177 -1.84921 32697 ft 428 kts 160°
2026-04-26 21:40 52.25523 -1.82862 32433 ft 417 kts 160°
2026-04-26 21:40 52.22937 -1.80860 32218 ft 406 kts 160°
2026-04-26 21:41 52.20417 -1.78913 32012 ft 395 kts 160°
2026-04-26 21:41 52.17992 -1.77042 31814 ft 385 kts 160°
2026-04-26 21:41 52.15604 -1.75202 31585 ft 376 kts 160°
2026-04-26 21:41 52.13242 -1.73388 30800 ft 376 kts 160°
2026-04-26 21:42 52.10841 -1.71565 29587 ft 385 kts 159°
2026-04-26 21:42 52.08489 -1.69325 28250 ft 397 kts 152°
2026-04-26 21:42 52.06148 -1.66842 26900 ft 406 kts 150°
2026-04-26 21:42 52.03773 -1.64285 25546 ft 415 kts 150°
2026-04-26 21:43 52.01339 -1.61675 24164 ft 422 kts 150°
2026-04-26 21:43 51.98862 -1.59032 22546 ft 430 kts 150°
2026-04-26 21:43 51.96339 -1.56353 20849 ft 435 kts 149°
2026-04-26 21:43 51.93793 -1.53658 19236 ft 440 kts 149°
2026-04-26 21:44 51.91232 -1.50950 17722 ft 437 kts 149°
2026-04-26 21:44 51.88704 -1.48282 16332 ft 430 kts 149°
2026-04-26 21:44 51.86228 -1.45672 15048 ft 421 kts 149°
2026-04-26 21:44 51.83803 -1.43120 13860 ft 410 kts 149°
2026-04-26 21:45 51.81421 -1.40621 12734 ft 407 kts 149°
2026-04-26 21:45 51.79060 -1.38149 11799 ft 402 kts 148°
2026-04-26 21:45 51.76731 -1.35715 11002 ft 395 kts 148°
2026-04-26 21:45 51.74460 -1.33342 10492 ft 381 kts 148°
2026-04-26 21:46 51.72297 -1.31084 10302 ft 360 kts 148°
2026-04-26 21:46 51.70192 -1.28890 10300 ft 375 kts 148°
2026-04-26 21:46 51.67945 -1.26552 10299 ft 397 kts 148°
2026-04-26 21:46 51.65613 -1.24127 10294 ft 401 kts 148°
2026-04-26 21:47 51.63267 -1.21690 10292 ft 401 kts 148°
2026-04-26 21:47 51.60917 -1.19251 10292 ft 401 kts 148°
2026-04-26 21:47 51.58571 -1.16820 10293 ft 401 kts 148°
2026-04-26 21:47 51.56222 -1.14388 10292 ft 401 kts 147°
2026-04-26 21:48 51.53879 -1.11966 10293 ft 401 kts 147°
2026-04-26 21:48 51.51530 -1.09540 10293 ft 401 kts 147°
2026-04-26 21:48 51.49187 -1.07125 10294 ft 401 kts 147°
2026-04-26 21:48 51.46839 -1.04706 10295 ft 401 kts 147°
2026-04-26 21:49 51.44492 -1.02292 10295 ft 401 kts 147°
2026-04-26 21:49 51.42146 -0.99882 10298 ft 401 kts 148°
2026-04-26 21:49 51.39798 -0.97472 10299 ft 401 kts 148°
2026-04-26 21:49 51.37452 -0.95068 10301 ft 401 kts 148°
2026-04-26 21:50 51.35099 -0.92659 10311 ft 402 kts 148°
2026-04-26 21:50 51.33539 -0.91064 10317 ft 402 kts 148°
2026-04-26 21:50 51.30390 -0.87848 10292 ft 401 kts 148°
2026-04-26 21:50 51.28044 -0.85456 10290 ft 400 kts 148°
2026-04-26 21:51 51.25695 -0.83063 10293 ft 400 kts 148°
2026-04-26 21:51 51.23349 -0.80676 10291 ft 397 kts 148°
2026-04-26 21:51 51.21099 -0.78390 10282 ft 368 kts 148°
2026-04-26 21:51 51.19019 -0.76276 10284 ft 342 kts 148°
2026-04-26 21:52 51.17077 -0.74306 10286 ft 319 kts 148°
2026-04-26 21:52 51.15265 -0.72470 10286 ft 299 kts 148°
2026-04-26 21:52 51.13570 -0.70753 10287 ft 279 kts 148°
2026-04-26 21:52 51.11974 -0.69140 10221 ft 266 kts 148°
2026-04-26 21:53 51.10435 -0.67585 9871 ft 263 kts 148°
2026-04-26 21:53 51.08869 -0.65997 9051 ft 272 kts 146°
2026-04-26 21:53 51.07495 -0.63860 8086 ft 283 kts 122°
2026-04-26 21:53 51.06777 -0.60946 7069 ft 294 kts 101°
2026-04-26 21:54 51.06564 -0.57671 5938 ft 302 kts 91°
2026-04-26 21:54 51.06778 -0.54334 4785 ft 307 kts 78°
2026-04-26 21:54 51.07071 -0.50994 3861 ft 302 kts 86°
2026-04-26 21:54 51.07329 -0.47765 3258 ft 286 kts 71°
2026-04-26 21:55 51.08312 -0.45186 3013 ft 262 kts 47°
2026-04-26 21:55 51.09507 -0.43204 2978 ft 235 kts 50°
2026-04-26 21:55 51.10486 -0.41308 2998 ft 208 kts 52°
2026-04-26 21:55 51.11333 -0.39628 2947 ft 184 kts 52°
2026-04-26 21:56 51.12081 -0.38087 2745 ft 170 kts 54°
2026-04-26 21:56 51.12502 -0.36342 2745 ft 170 kts 79°
2026-04-26 21:56 51.12700 -0.34481 2749 ft 170 kts 78°
2026-04-26 21:56 51.12948 -0.32634 2743 ft 170 kts 76°
2026-04-26 21:57 51.13205 -0.30793 2746 ft 168 kts 77°
2026-04-26 21:57 51.13459 -0.29014 2137 ft 173 kts 77°
2026-04-26 21:57 51.13725 -0.27048 1264 ft 185 kts 78°
2026-04-26 21:57 51.13990 -0.25061 724 ft 177 kts 77°
2026-04-26 21:58 51.14228 -0.23268 526 ft 156 kts 78°
2026-04-26 21:58 51.14450 -0.21685 352 ft 141 kts 76°
2026-04-26 21:58 51.14651 -0.20172 841 ft 149 kts 78°
2026-04-26 21:58 51.14878 -0.18430 1704 ft 175 kts 78°
2026-04-26 21:59 51.15151 -0.16445 2506 ft 191 kts 77°
2026-04-26 21:59 51.15463 -0.14363 3335 ft 190 kts 75°
2026-04-26 21:59 51.15846 -0.12366 3900 ft 188 kts 71°
2026-04-26 21:59 51.16217 -0.10329 4183 ft 195 kts 76°
2026-04-26 22:00 51.16401 -0.08912 4312 ft 199 kts 81°
2026-04-26 22:00 51.16587 -0.06743 4233 ft 196 kts 92°
2026-04-26 22:00 51.16122 -0.04759 3979 ft 195 kts 129°
2026-04-26 22:00 51.14972 -0.03643 3726 ft 199 kts 166°
2026-04-26 22:01 51.13591 -0.03399 3484 ft 202 kts 180°
2026-04-26 22:01 51.12230 -0.03945 3250 ft 202 kts 204°
2026-04-26 22:01 51.11014 -0.05036 3026 ft 201 kts 211°
2026-04-26 22:01 51.09841 -0.06275 2778 ft 203 kts 213°
2026-04-26 22:02 51.08687 -0.07557 2534 ft 202 kts 214°
2026-04-26 22:02 51.07545 -0.08848 2270 ft 201 kts 214°
2026-04-26 22:02 51.06413 -0.10136 2049 ft 200 kts 214°
2026-04-26 22:02 51.05285 -0.11422 1993 ft 199 kts 214°
2026-04-26 22:03 51.04157 -0.12709 1999 ft 199 kts 214°
2026-04-26 22:03 51.03038 -0.13988 1996 ft 198 kts 214°
2026-04-26 22:03 51.01922 -0.15263 1993 ft 198 kts 214°
2026-04-26 22:03 51.00805 -0.16537 1991 ft 198 kts 214°
2026-04-26 22:04 50.99710 -0.17861 1987 ft 198 kts 223°
2026-04-26 22:04 50.99115 -0.19782 1988 ft 198 kts 268°
2026-04-26 22:04 50.99529 -0.21808 1999 ft 196 kts 305°
2026-04-26 22:04 51.00362 -0.23516 1994 ft 196 kts 311°
2026-04-26 22:05 51.01241 -0.25172 1993 ft 196 kts 311°
2026-04-26 22:05 51.02097 -0.26825 1992 ft 196 kts 310°
2026-04-26 22:05 51.02959 -0.28540 1992 ft 196 kts 310°
2026-04-26 22:05 51.03790 -0.30229 1971 ft 197 kts 309°
2026-04-26 22:06 51.04635 -0.31967 1967 ft 199 kts 309°
2026-04-26 22:06 51.05478 -0.33712 1989 ft 198 kts 309°
2026-04-26 22:06 51.06313 -0.35450 1992 ft 197 kts 309°
2026-04-26 22:06 51.07143 -0.37179 1993 ft 197 kts 309°
2026-04-26 22:07 51.07972 -0.38911 1992 ft 197 kts 309°
2026-04-26 22:07 51.08796 -0.40634 2021 ft 194 kts 309°
2026-04-26 22:07 51.09614 -0.42346 2002 ft 195 kts 309°
2026-04-26 22:07 51.10438 -0.44072 1992 ft 196 kts 309°
2026-04-26 22:08 51.11330 -0.45708 1983 ft 195 kts 325°
2026-04-26 22:08 51.12587 -0.46184 1992 ft 188 kts 13°
2026-04-26 22:08 51.13602 -0.45023 1992 ft 184 kts 62°
2026-04-26 22:08 51.13685 -0.43059 1990 ft 185 kts 111°
2026-04-26 22:09 51.12776 -0.41673 1987 ft 185 kts 160°
2026-04-26 22:09 51.11562 -0.41797 1995 ft 178 kts 195°
2026-04-26 22:09 51.10379 -0.41714 1987 ft 171 kts 148°
2026-04-26 22:09 51.09744 -0.40240 1989 ft 166 kts 94°
2026-04-26 22:10 51.10090 -0.38534 2007 ft 166 kts 59°
2026-04-26 22:10 51.10689 -0.36962 1997 ft 167 kts 59°
2026-04-26 22:10 51.11297 -0.35378 1992 ft 167 kts 59°
2026-04-26 22:10 51.11855 -0.33916 1949 ft 142 kts 60°
2026-04-26 22:11 51.12314 -0.32671 1838 ft 123 kts 60°
2026-04-26 22:11 51.12734 -0.31528 1673 ft 118 kts 61°
2026-04-26 22:11 51.13107 -0.30367 1493 ft 117 kts 69°
2026-04-26 22:11 51.13364 -0.29138 1331 ft 117 kts 72°
2026-04-26 22:12 51.13586 -0.27898 1130 ft 116 kts 78°
2026-04-26 22:12 51.13751 -0.26640 982 ft 117 kts 78°
2026-04-26 22:12 51.13884 -0.25369 845 ft 116 kts 78°
2026-04-26 22:12 51.14086 -0.24120 709 ft 117 kts 74°
2026-04-26 22:13 51.14283 -0.22858 523 ft 118 kts 78°
2026-04-26 22:13 51.14453 -0.21587 362 ft 117 kts 75°
2026-04-26 22:13 51.14632 -0.20368 219 ft 107 kts 77°
2026-04-26 22:13 51.14738 -0.19546 212 ft 49 kts 78°